CZ-6A DEB

Satellite information

Favourite Embed

Satellite Type and Status

DEBRISIN ORBIT

Key statistics

Satellite CZ-6A DEB at a glance.

Uptime

436

Days in orbit

Revolutions

≈ 14.2

Per day

Orbit

LEO

Low Earth Orbit

Inclination

89.0

Latest

Satellite identification and parameters

Extended collection of information and parameters for CZ-6A DEB.

Object identification

Identified? True

Debris? True

Object name: CZ-6A DEB

International designator: 2024-140ACR

Object number (NORAD): 61825

Object ID (CCSDS): 61825

Country: PEOPLES REPUBLIC OF CHINA (PRC)

Current information (Y/N): Y

RCS size: SMALL

Orbital parameters

Period: 101.146 minutes

Inclination: 89.0068 deg

SMA: 7191.036 km

Apoapsis: 840.466 km

Periapsis: 785.335 km

RAAN: 302.5156 deg

Eccentricy: 0.00383327

Argument of periapsis: 265.798 deg

Mean anomaly: 93.883 deg

Mean motion: 14.23690575 rev/day

Mean motion (dot): 0.00003687 rev/day2

B* drag term: 0.0015984476 1/REarth

Two-line elements (TLE)

Creation date: Oct. 16, 2025, 2:37 a.m.

Reference frame: TEME

Reference center: EARTH

Epoch: Oct. 15, 2025, 9:17 p.m. UTC

TLE line 0: 0 CZ-6A DEB

TLE line 1: 1 61825U 24140ACR 25288.88743192 .00003687 00000-0 15984-2 0 9993

TLE line 2: 2 61825 89.0068 302.5156 0038333 265.7980 93.8830 14.23690575 56828

Live tracking on map

Real-time ground track for satellite CZ-6A DEB.

In-orbit conjunctions

A list of the most updated potential collisions computed for object CZ-6A DEB.

Target Orbit TCA Probability of collision Miss distance Type
CZ-6A R/B SSO 2025-05-20 00:16:22 0.001354943 51.0 (m) ROCKET BODY
FENGYUN 1C DEB SSO 2025-02-12 08:31:59 0.0001742533 912.0 (m) DEBRIS
FENGYUN 1C DEB SSO 2025-01-17 13:20:58 0.0002600645 787.0 (m) DEBRIS
CZ-6A DEB LEO 2025-01-11 11:17:32 0.0006875745 610.0 (m) DEBRIS
CZ-6A DEB LEO 2025-01-05 11:40:56 0.0005127544 780.0 (m) DEBRIS

Associated space launch

18 Low Earth Orbit communication satellites with Ku, Q and V band payloads for the G60 constellation operated by Shanghai Spacecom Satellite Technology (SSST) with funding backed by the Shanghai local government. Initial constellation will consist of 1296 satellites by 2027 with long term plans to expand it to 12000 satellites.

CZ-6A DEB was lifted into orbit during the mission ‘Long March 6A | G60 Polar Group 01’, on board a Long March 6A space rocket.

The launch took place on Aug. 6, 2024, 6:42 a.m. from Launch Complex 9A.

For more information about the launch, click the button.

Launch to space Long March 6A | G60 Polar Group 01
Long March 6A | G60 Polar Group 01

Agency: N/A

Status: Launch Successful

Launch date: Aug. 6, 2024, 6:42 a.m. UTC

Rocket: Long March 6A

Launch pad: Launch Complex 9A

Location: Taiyuan Satellite Launch Center, People's Republic of China

...

Latest news about this satellite

News about space launch
Brightness of first Chinese broadband constellation satellites alarms astronomers

The first satellites of a Chinese broadband constellation are significantly brighter than those of Western systems, posing a new challenge for astronomers.

News about space launch
Chinese rocket stage breaks up into cloud of more than 700 pieces of space debris

HELSINKI — A Chinese Long March 6A rocket’s upper stage has fragmented into a cloud of over 700 pieces of space debris, adding to concerns about long-term orbital safety. China […]

News about space launch
China's Thousand Sails Megaconstellation Kicks Off with Dangerous Debris Field

China's Thousand Sails Megaconstellation Kicks Off with Dangerous Debris Field


Newsletter sign-up

Weekly statistics, charts and insights to help you stay on top of the space industry.